Home > Weather > Yuzhno-Sakhalinsk > Past weeks

Flag for Russia Weather for the Past 2 Weeks in Yuzhno-Sakhalinsk, Russia

Now
43 °F

Clear.


Feels Like: 41 °F
Forecast: 31 / 42 °F
Wind: 3 mph from Southeast

Location: Yuzhno Airport-Sakhalinsk

Current Time: May 6, 2016 at 11:14:13 PM

Latest Report: May 6, 2016 at 10:30 PM


Visibility: N/A

Pressure: 29.92 "Hg

Humidity: 71%

Dew Point: 34 °F

Location of Yuzhno-SakhalinskLocation

Historic Weather in Yuzhno-Sakhalinsk — Graph

°F

Yuzhno-Sakhalinsk Temperature Yesterday

Maximum temperature yesterday: 46 °F (at 12:30 PM)
Minimum temperature yesterday: 36 °F (at 4:00 AM)
Average temperature yesterday: 42 °F

High & Low Weather Summary for the Past Weeks

 TemperatureHumidityPressure
High57 °F (May 6, 3:30 PM)100% (Apr 23, 12:00 PM)30.21 "Hg (Apr 23, 12:00 PM)
Low23 °F (May 2, 6:00 AM)35% (Apr 27, 7:00 PM)29.39 "Hg (May 5, 1:30 PM)
Average39 °F81%29.83 "Hg
* Reported Apr 21 10:00 PM — May 6 10:00 PM, Yuzhno-Sakhalinsk, Weather by CustomWeather, © 2016

Note: Actual official high and low records may vary slightly from our data, if they occured in-between our weather recording intervals... More about our weather records

Advertising

Yuzhno-Sakhalinsk Weather History for the Previous 24 Hours

Scroll right to see more
 ConditionsComfort  
Time TempWeatherWind HumidityBarometerVisibility
10:00 PM
Fri, May 6
43 °FClear.1 mph71%29.92 "HgN/A
9:30 PM43 °FClear.3 mph71%29.92 "HgN/A
9:00 PM46 °FClear.6 mph53%29.92 "HgN/A
8:30 PM46 °FClear.3 mph57%29.92 "HgN/A
8:00 PM48 °FClear.6 mph54%29.89 "HgN/A
7:30 PM50 °FClear.6 mph47%29.92 "HgN/A
7:00 PM52 °FClear.8 mph44%29.92 "HgN/A
6:30 PM52 °FClear.10 mph44%29.92 "HgN/A
6:00 PM54 °FClear.15 mph47%29.92 "HgN/A
5:30 PM55 °FClear.15 mph38%29.92 "HgN/A
5:00 PM57 °FClear.13 mph39%29.89 "HgN/A
4:30 PM57 °FClear.8 mph36%29.89 "HgN/A
4:00 PM57 °FClear.8 mph36%29.89 "HgN/A
3:30 PM57 °FClear.8 mph36%29.89 "HgN/A
3:00 PM55 °FClear.8 mph41%29.89 "HgN/A
2:30 PM55 °FClear.10 mph41%29.89 "HgN/A
2:00 PM54 °FClear.10 mph41%29.89 "HgN/A
1:30 PM54 °FClear.6 mph41%29.89 "HgN/A
1:00 PM54 °FClear.10 mph44%29.89 "HgN/A
12:30 PM54 °FClear.10 mph41%29.89 "HgN/A
12:00 PM52 °FClear.10 mph44%29.89 "HgN/A
11:30 AM52 °FClear.10 mph47%29.89 "HgN/A
11:00 AM50 °FClear.10 mph50%29.89 "HgN/A
10:30 AM48 °FClear.6 mph54%29.89 "HgN/A
10:00 AM46 °FClear.8 mph57%29.89 "HgN/A
9:30 AM45 °FClear.8 mph61%29.89 "HgN/A
9:00 AM43 °FClear.13 mph61%29.86 "HgN/A
8:30 AM41 °FClear.13 mph66%29.86 "HgN/A
8:00 AM39 °FClear.10 mph70%29.86 "HgN/A
7:30 AM39 °FPassing clouds.13 mph70%29.83 "HgN/A
7:00 AM39 °FPassing clouds.13 mph70%29.83 "HgN/A
6:30 AM37 °FPassing clouds.13 mph75%29.83 "HgN/A
6:00 AM39 °FClear.15 mph75%29.80 "HgN/A
5:00 AM37 °FClear.10 mph81%29.77 "HgN/A
4:00 AM37 °FPassing clouds.13 mph81%29.74 "HgN/A
3:00 AM37 °FPassing clouds.8 mph87%29.74 "HgN/A
2:00 AM39 °FPassing clouds.6 mph87%29.71 "HgN/A
1:00 AM39 °FPassing clouds.8 mph87%29.68 "HgN/A
12:00 AM39 °FPassing clouds.13 mph87%29.65 "HgN/A
11:00 PM
Thu, May 5
41 °FPassing clouds.13 mph87%29.62 "HgN/A
Weather by CustomWeather, © 2016

See weather overviewHow to use our weather pages